Time,TemperatureF,DewpointF,PressureIn,WindDirection,WindDirectionDegrees,WindSpeedMPH,WindSpeedGustMPH,Humidity,HourlyPrecipIn,Conditions,Clouds,dailyrainin,SoftwareType,DateUTC
2015-04-27 00:01:00,46.0,34.0,29.59,NNW,334,1.0,2.0,62,-99.99,,,-99.99,,2015-04-27 04:01:00,
2015-04-27 00:11:00,46.0,34.0,29.59,WNW,287,1.0,6.0,63,-99.99,,,-99.99,,2015-04-27 04:11:00,
2015-04-27 00:21:00,46.0,34.0,29.59,NNW,334,2.0,3.0,63,-99.99,,,-99.99,,2015-04-27 04:21:00,
2015-04-27 00:51:00,46.0,35.0,29.59,NNW,342,1.0,3.0,64,-99.99,,,-99.99,,2015-04-27 04:51:00,
2015-04-27 01:21:00,45.0,34.0,29.59,WSW,251,1.0,2.0,65,-99.99,,,-99.99,,2015-04-27 05:21:00,
2015-04-27 01:32:00,45.0,34.0,29.59,West,280,0.0,3.0,66,-99.99,,,-99.99,,2015-04-27 05:32:00,
2015-04-27 01:42:00,45.0,34.0,29.59,NW,311,1.0,1.0,66,-99.99,,,-99.99,,2015-04-27 05:42:00,
2015-04-27 01:51:00,45.0,34.0,29.59,SW,235,1.0,3.0,66,-99.99,,,-99.99,,2015-04-27 05:51:00,
2015-04-27 02:52:00,42.0,33.0,29.59,NW,307,0.0,1.0,70,-99.99,,,-99.99,,2015-04-27 06:52:00,
2015-04-27 03:21:00,42.0,33.0,29.56,WNW,292,1.0,1.0,70,-99.99,,,-99.99,,2015-04-27 07:21:00,
2015-04-27 03:31:00,42.0,33.0,29.59,West,270,0.0,1.0,71,-99.99,,,-99.99,,2015-04-27 07:31:00,
2015-04-27 03:51:00,41.0,33.0,29.56,West,270,0.0,0.0,72,-99.99,,,-99.99,,2015-04-27 07:51:00,
2015-04-27 04:51:00,38.0,32.0,29.59,NNW,334,0.0,1.0,79,-99.99,,,-99.99,,2015-04-27 08:51:00,
2015-04-27 05:21:00,38.0,33.0,29.59,NW,315,0.0,0.0,81,-99.99,,,-99.99,,2015-04-27 09:21:00,
2015-04-27 05:31:00,38.0,33.0,29.59,NW,315,0.0,0.0,81,-99.99,,,-99.99,,2015-04-27 09:31:00,
2015-04-27 05:42:00,38.0,33.0,29.59,NW,315,0.0,0.0,81,-99.99,,,-99.99,,2015-04-27 09:42:00,
2015-04-27 05:51:00,38.0,33.0,29.59,NW,315,0.0,0.0,82,-99.99,,,-99.99,,2015-04-27 09:51:00,
2015-04-27 06:01:00,37.0,32.0,29.59,NW,315,0.0,0.0,82,-99.99,,,-99.99,,2015-04-27 10:01:00,
2015-04-27 06:21:00,37.0,33.0,29.59,NW,315,0.0,0.0,85,-99.99,,,-99.99,,2015-04-27 10:21:00,
2015-04-27 06:52:00,40.0,36.0,29.59,WNW,282,0.0,1.0,85,-99.99,,,-99.99,,2015-04-27 10:52:00,
2015-04-27 07:22:00,42.0,37.0,29.59,NNW,338,1.0,2.0,82,-99.99,,,-99.99,,2015-04-27 11:22:00,
2015-04-27 07:32:00,43.0,38.0,29.59,NW,315,1.0,2.0,82,-99.99,,,-99.99,,2015-04-27 11:32:00,
2015-04-27 07:52:00,45.0,38.0,29.59,NNW,336,2.0,7.0,75,-99.99,,,-99.99,,2015-04-27 11:52:00,
2015-04-27 08:22:00,46.0,36.0,29.59,NNE,16,2.0,6.0,69,-99.99,,,-99.99,,2015-04-27 12:22:00,
2015-04-27 08:32:00,47.0,37.0,29.59,NNW,339,3.0,5.0,67,-99.99,,,-99.99,,2015-04-27 12:32:00,
2015-04-27 09:51:00,51.0,35.0,29.56,NNE,18,5.0,7.0,55,-99.99,,,-99.99,,2015-04-27 13:51:00,
2015-04-27 10:01:00,51.0,35.0,29.53,NNE,25,3.0,7.0,55,-99.99,,,-99.99,,2015-04-27 14:01:00,
2015-04-27 10:11:00,52.0,36.0,29.53,NNW,332,5.0,8.0,55,-99.99,,,-99.99,,2015-04-27 14:11:00,
2015-04-27 10:21:00,53.0,37.0,29.53,NNE,12,4.0,9.0,54,-99.99,,,-99.99,,2015-04-27 14:21:00,
2015-04-27 11:01:00,56.0,39.0,29.53,North,355,3.0,6.0,52,-99.99,,,-99.99,,2015-04-27 15:01:00,
2015-04-27 11:11:00,56.0,39.0,29.53,WNW,291,3.0,7.0,52,-99.99,,,-99.99,,2015-04-27 15:11:00,
2015-04-27 11:21:00,56.0,39.0,29.53,NNW,340,3.0,6.0,52,-99.99,,,-99.99,,2015-04-27 15:21:00,
2015-04-27 12:52:00,58.0,39.0,29.50,NE,50,3.0,7.0,50,-99.99,,,-99.99,,2015-04-27 16:52:00,
2015-04-27 13:32:00,57.0,39.0,29.50,West,270,3.0,12.0,51,-99.99,,,-99.99,,2015-04-27 17:32:00,
2015-04-27 13:55:00,57.0,39.0,29.50,NE,41,5.0,8.0,51,-99.99,,,-99.99,,2015-04-27 17:55:00,
2015-04-27 14:04:00,56.0,39.0,29.50,NE,41,4.0,9.0,52,-99.99,,,-99.99,,2015-04-27 18:04:00,
2015-04-27 14:11:00,57.0,40.0,29.50,NE,44,2.0,9.0,52,-99.99,,,-99.99,,2015-04-27 18:11:00,
2015-04-27 14:22:00,57.0,40.0,29.50,NE,34,3.0,9.0,52,-99.99,,,-99.99,,2015-04-27 18:22:00,
2015-04-27 14:52:00,53.0,40.0,29.50,NNE,24,5.0,8.0,62,-99.99,,,-99.99,,2015-04-27 18:52:00,
2015-04-27 15:02:00,52.0,41.0,29.47,NNE,17,2.0,6.0,66,-99.99,,,-99.99,,2015-04-27 19:02:00,
2015-04-27 15:12:00,51.0,41.0,29.47,NNE,22,2.0,7.0,69,-99.99,,,-99.99,,2015-04-27 19:12:00,
2015-04-27 15:51:00,54.0,42.0,29.47,North,7,3.0,10.0,64,-99.99,,,-99.99,,2015-04-27 19:51:00,
2015-04-27 16:02:00,55.0,42.0,29.50,NNW,328,3.0,6.0,62,-99.99,,,-99.99,,2015-04-27 20:02:00,
2015-04-27 16:21:00,55.0,41.0,29.50,North,358,3.0,6.0,58,-99.99,,,-99.99,,2015-04-27 20:21:00,
2015-04-27 16:51:00,54.0,40.0,29.50,NNW,327,3.0,6.0,60,-99.99,,,-99.99,,2015-04-27 20:51:00,
2015-04-27 17:01:00,53.0,41.0,29.50,North,4,3.0,6.0,63,-99.99,,,-99.99,,2015-04-27 21:01:00,
2015-04-27 17:32:00,54.0,40.0,29.50,NE,40,4.0,8.0,60,-99.99,,,-99.99,,2015-04-27 21:32:00,
2015-04-27 17:51:00,53.0,41.0,29.50,NW,322,3.0,10.0,64,-99.99,,,-99.99,,2015-04-27 21:51:00,
2015-04-27 18:21:00,51.0,41.0,29.50,North,357,4.0,9.0,69,-99.99,,,-99.99,,2015-04-27 22:21:00,
2015-04-27 19:51:00,46.0,41.0,29.56,West,267,1.0,2.0,84,-99.99,,,-99.99,,2015-04-27 23:51:00,
2015-04-27 20:01:00,46.0,42.0,29.56,WNW,292,1.0,2.0,85,-99.99,,,-99.99,,2015-04-28 00:01:00,
2015-04-27 20:12:00,46.0,42.0,29.56,NNW,338,2.0,3.0,86,-99.99,,,-99.99,,2015-04-28 00:12:00,
2015-04-27 20:21:00,46.0,43.0,29.56,North,2,2.0,6.0,88,-99.99,,,-99.99,,2015-04-28 00:21:00,
2015-04-27 20:51:00,47.0,42.0,29.56,NNW,346,1.0,2.0,82,-99.99,,,-99.99,,2015-04-28 00:51:00,
2015-04-27 21:01:00,46.0,41.0,29.56,NNW,347,2.0,5.0,83,-99.99,,,-99.99,,2015-04-28 01:01:00,
2015-04-27 21:21:00,46.0,41.0,29.56,North,1,2.0,7.0,82,-99.99,,,-99.99,,2015-04-28 01:21:00,